User: anonymous   Login
Location: Newark
(48.3453°N, 0.5589°E)
Time: 18:31:21
(UTC+00:00)
Language:

S-56A Canister/Altair - Orbit

View from above orbital plane
View from above orbital plane
View from above satellite
View from above satellite

Ground track
Ground track

The orbit data is extracted from the following two-line orbital elements,

1    82U 61004B   19345.79054470 -.00000031 +00000-0 -66642-6 0  9995
2    82 038.8611 176.9534 1174957 253.0550 093.8275 12.26056388784653
Epoch (UTC): 11 December 2019 18:58:23
Eccentricity: 0.1174957
inclination: 38.8611°
perigee height: 633 km
apogee height: 2499 km
right ascension of ascending node: 176.9534°
argument of perigee: 253.0550°
revolutions per day: 12.26056388
mean anomaly at epoch: 93.8275°
orbit number at epoch: 78465

The dashed part of the orbit path shows where the satellite is in the earth's shadow,  

DLR